Juliana Airport, Sint Maarten

6:44 AM AST on December 11, 2017 (GMT -0400)
Princess Juliana International

Weather History for TNCM - August, 2013

Change the Weather History Date:

Wednesday, August 21, 2013

  Actual Average Record
Temperature  
Mean Temperature 85 °F -  
Max Temperature 89 °F 87 °F 91 °F (2001)
Min Temperature 81 °F 78 °F 73 °F (2011)
Cooling Degree Days 20    
Growing Degree Days 35 (Base 50)    
Moisture  
Dew Point 74 °F    
Average Humidity 70    
Maximum Humidity 79    
Minimum Humidity 54    
Precipitation  
Precipitation 0.00 in 0.16 in - ()
Sea Level Pressure  
Sea Level Pressure 30.00 in    
Wind  
Wind Speed 11 mph ()    
Max Wind Speed 17 mph    
Max Gust Speed -    
Visibility 7.2 miles    
Events      
Averages and records for this station are not official NWS values.
T = Trace of Precipitation, MM = Missing Value Source: Averaged Metar Reports

Daily Weather History Graph

Daily Weather History Graph

Search for Another Location

Airport or City:

Trip Planner

Search our weather history database for the weather conditions in past years. The results will help you decide how hot, cold, wet, or windy it might be!

Date:

Astronomy

Aug. 21, 2013 Rise Set
Actual Time 5:56 AM AST 6:34 PM AST
Civil Twilight 5:33 AM AST 6:57 PM AST
Nautical Twilight 5:07 AM AST 7:23 PM AST
Astronomical Twilight 4:40 AM AST 7:49 PM AST
Moon 6:58 PM AST (8/21) 6:18 AM AST (8/21)
Length of Visible Light 13h 23m
Length of Day
12h 38m
Full, 100% of the Moon is Illuminated
Aug 21
Full
Aug 28
Last Quarter
Sep 5
New
Sep 12
First Quarter
Sep 19
Full

Hourly Weather History & Observations

Time (AST) Temp. Heat Index Dew Point Humidity Pressure Visibility Wind Dir Wind Speed Gust Speed Precip Events Conditions
12:00 AM 82.4 °F 89.5 °F 75.2 °F 79% 30.01 in 6.2 mi East 10.4 mph - N/A   Partly Cloudy
1:00 AM 82.4 °F 89.5 °F 75.2 °F 79% 30.01 in 6.2 mi East 8.1 mph - N/A   Partly Cloudy
2:00 AM 82 °F - 75 °F 73% 30.00 in 19 mi East 11.5 mph - -   Partly Cloudy
2:00 AM 82.4 °F 89.5 °F 75.2 °F 79% 29.98 in 6.2 mi East 11.5 mph - N/A   Scattered Clouds
3:00 AM 82.4 °F 89.5 °F 75.2 °F 79% 29.98 in 6.2 mi East 10.4 mph - N/A   Scattered Clouds
4:00 AM 82.4 °F 89.5 °F 75.2 °F 79% 29.98 in 6.2 mi East 11.5 mph - N/A   Scattered Clouds
5:00 AM 82 °F - 75 °F 74% 29.99 in 19 mi East 9.2 mph - -   Partly Cloudy
5:00 AM 82.4 °F 89.5 °F 75.2 °F 79% 29.98 in 6.2 mi East 9.2 mph - N/A   Mostly Cloudy
6:00 AM 82.4 °F 88.2 °F 73.4 °F 74% 29.98 in 6.2 mi East 12.7 mph - N/A   Partly Cloudy
7:00 AM 82.4 °F 88.2 °F 73.4 °F 74% 30.01 in 6.2 mi East 11.5 mph - N/A   Partly Cloudy
8:00 AM 84 °F - 74 °F 64% 30.02 in 25 mi East 13.8 mph - -   Partly Cloudy
8:00 AM 84.2 °F 90.9 °F 73.4 °F 70% 30.01 in 6.2 mi East 13.8 mph - N/A   Partly Cloudy
9:00 AM 86.0 °F 93.4 °F 73.4 °F 66% 30.04 in 6.2 mi East 12.7 mph - N/A   Partly Cloudy
10:00 AM 87.8 °F 95.6 °F 73.4 °F 62% 30.04 in 6.2 mi East 15.0 mph - N/A   Partly Cloudy
11:00 AM 88 °F - 73 °F 54% 30.03 in 25 mi East 15.0 mph - -   Scattered Clouds
11:00 AM 87.8 °F 95.6 °F 73.4 °F 62% 30.04 in 6.2 mi East 15.0 mph - N/A   Partly Cloudy
12:00 PM 87.8 °F 95.6 °F 73.4 °F 62% 30.01 in 6.2 mi East 13.8 mph - N/A   Partly Cloudy
1:00 PM 87.8 °F 93.8 °F 71.6 °F 58% 29.98 in 6.2 mi ENE 16.1 mph - N/A   Partly Cloudy
2:00 PM 87 °F - 74 °F 58% 29.99 in 25 mi East 16.1 mph - -   Partly Cloudy
2:00 PM 87.8 °F 97.6 °F 75.2 °F 66% 29.98 in 6.2 mi ENE 17.3 mph - N/A   Scattered Clouds
3:00 PM 87.8 °F 95.6 °F 73.4 °F 62% 29.98 in 6.2 mi East 17.3 mph - N/A   Mostly Cloudy
4:00 PM 86.0 °F 93.4 °F 73.4 °F 66% 29.95 in 6.2 mi ENE 15.0 mph - N/A   Mostly Cloudy
5:00 PM 85 °F - 74 °F 62% 29.96 in 25 mi East 13.8 mph - -   Mostly Cloudy
5:00 PM 84.2 °F 90.9 °F 73.4 °F 70% 29.95 in 6.2 mi ENE 13.8 mph - N/A   Mostly Cloudy
6:00 PM 84.2 °F 92.3 °F 75.2 °F 74% 29.98 in 6.2 mi East 13.8 mph - N/A   Mostly Cloudy
7:00 PM 84.2 °F 92.3 °F 75.2 °F 74% 29.98 in 6.2 mi ENE 12.7 mph - N/A   Mostly Cloudy
8:00 PM 84 °F - 75 °F 68% 29.99 in 22 mi ENE 12.7 mph - -   Mostly Cloudy
8:00 PM 84.2 °F 92.3 °F 75.2 °F 74% 29.98 in 6.2 mi ENE 12.7 mph - N/A   Mostly Cloudy
9:00 PM 84.2 °F 92.3 °F 75.2 °F 74% 30.01 in 6.2 mi ENE 12.7 mph - N/A   Mostly Cloudy
10:00 PM 84.2 °F 92.3 °F 75.2 °F 74% 30.01 in 6.2 mi ENE 13.8 mph - N/A   Mostly Cloudy
11:00 PM 84.2 °F 92.3 °F 75.2 °F 74% 30.01 in 6.2 mi ENE 11.5 mph - N/A   Mostly Cloudy